Time,TemperatureF,DewpointF,PressureIn,WindDirection,WindDirectionDegrees,WindSpeedMPH,WindSpeedGustMPH,Humidity,HourlyPrecipIn,Conditions,Clouds,dailyrainin,SoftwareType,DateUTC
2013-05-20 00:00:00,62.3,58.4,30.08,SW,225,5.0,7.0,87,0.00,,CLR,0.00,VWS V14.01,2013-05-20 04:00:00,
2013-05-20 00:30:00,62.3,58.4,30.08,SW,225,4.0,6.0,87,0.00,,CLR,0.00,VWS V14.01,2013-05-20 04:30:00,
2013-05-20 01:00:00,62.3,58.4,30.08,SW,225,3.0,5.0,87,0.00,,CLR,0.00,VWS V14.01,2013-05-20 05:00:00,
2013-05-20 01:30:00,62.3,58.4,30.06,SW,225,4.0,6.0,87,0.00,,CLR,0.00,VWS V14.01,2013-05-20 05:30:00,
2013-05-20 02:00:00,62.6,58.7,30.05,SW,225,3.0,6.0,87,0.00,,CLR,0.00,VWS V14.01,2013-05-20 06:00:00,
2013-05-20 02:30:00,62.7,58.8,30.05,SW,225,4.0,7.0,87,0.00,,CLR,0.00,VWS V14.01,2013-05-20 06:30:00,
2013-05-20 03:00:00,62.9,58.7,30.05,WSW,248,5.0,8.0,86,0.00,,CLR,0.00,VWS V14.01,2013-05-20 07:00:00,
2013-05-20 03:30:00,63.2,59.3,30.04,WSW,248,4.0,7.0,87,0.00,,CLR,0.00,VWS V14.01,2013-05-20 07:30:00,
2013-05-20 04:00:00,63.1,59.2,30.04,WSW,248,5.0,9.0,87,0.00,,CLR,0.00,VWS V14.01,2013-05-20 08:00:00,
2013-05-20 04:30:00,63.1,59.2,30.04,WSW,248,4.0,10.0,87,0.00,,CLR,0.00,VWS V14.01,2013-05-20 08:30:00,
2013-05-20 05:00:00,63.3,59.4,30.03,WSW,248,5.0,9.0,87,0.00,,CLR,0.00,VWS V14.01,2013-05-20 09:00:00,
2013-05-20 05:30:00,63.6,59.7,30.03,WSW,248,5.0,10.0,87,0.00,,CLR,0.00,VWS V14.01,2013-05-20 09:30:00,
2013-05-20 06:00:00,63.4,59.8,30.04,WSW,248,4.0,7.0,88,0.00,,CLR,0.00,VWS V14.01,2013-05-20 10:00:00,
2013-05-20 06:30:00,63.2,59.6,30.07,WSW,248,3.0,8.0,88,0.00,,CLR,0.00,VWS V14.01,2013-05-20 10:30:00,
2013-05-20 07:00:00,63.7,59.8,30.07,WSW,248,3.0,5.0,87,0.00,,CLR,0.00,VWS V14.01,2013-05-20 11:00:00,
2013-05-20 07:30:00,65.2,60.6,30.07,WSW,248,2.0,5.0,85,0.00,,CLR,0.00,VWS V14.01,2013-05-20 11:30:00,
2013-05-20 08:00:00,66.4,60.7,30.08,WSW,248,3.0,7.0,82,0.00,,CLR,0.00,VWS V14.01,2013-05-20 12:00:00,
2013-05-20 08:30:00,68.2,61.8,30.08,WSW,248,3.0,5.0,80,0.00,,CLR,0.00,VWS V14.01,2013-05-20 12:30:00,
2013-05-20 09:00:00,70.2,62.3,30.08,WSW,248,2.0,5.0,76,0.00,,CLR,0.00,VWS V14.01,2013-05-20 13:00:00,
2013-05-20 09:30:00,72.3,63.6,30.07,WSW,248,2.0,4.0,74,0.00,,CLR,0.00,VWS V14.01,2013-05-20 13:30:00,
2013-05-20 10:00:00,73.6,63.6,30.05,SW,225,1.0,3.0,71,0.00,,CLR,0.00,VWS V14.01,2013-05-20 14:00:00,
2013-05-20 10:30:00,75.8,64.1,30.05,WSW,248,1.0,3.0,67,0.00,,CLR,0.00,VWS V14.01,2013-05-20 14:30:00,
2013-05-20 11:00:00,77.7,64.6,30.04,NW,315,1.0,6.0,64,0.00,,CLR,0.00,VWS V14.01,2013-05-20 15:00:00,
2013-05-20 11:30:00,79.4,63.3,30.03,SW,225,1.0,4.0,58,0.00,,CLR,0.00,VWS V14.01,2013-05-20 15:30:00,
2013-05-20 12:00:00,80.8,64.2,30.03,South,180,1.0,6.0,57,0.00,,CLR,0.00,VWS V14.01,2013-05-20 16:00:00,
2013-05-20 12:30:00,81.5,65.3,30.02,ESE,112,1.0,5.0,58,0.00,,CLR,0.00,VWS V14.01,2013-05-20 16:30:00,
2013-05-20 13:00:00,82.1,64.3,30.01,SE,135,2.0,6.0,55,0.00,,CLR,0.00,VWS V14.01,2013-05-20 17:00:00,
2013-05-20 13:30:00,81.4,64.2,30.01,SSW,202,2.0,5.0,56,0.00,,CLR,0.00,VWS V14.01,2013-05-20 17:30:00,
2013-05-20 14:00:00,81.7,65.0,30.00,SSW,202,2.0,6.0,57,0.00,,CLR,0.00,VWS V14.01,2013-05-20 18:00:00,
2013-05-20 14:30:00,81.3,65.1,30.00,SE,135,1.0,6.0,58,0.00,,CLR,0.00,VWS V14.01,2013-05-20 18:30:00,
2013-05-20 15:00:00,81.9,64.7,29.99,SSW,202,2.0,5.0,56,0.00,,CLR,0.00,VWS V14.01,2013-05-20 19:00:00,
2013-05-20 15:30:00,81.7,65.0,29.97,SE,135,2.0,7.0,57,0.00,,CLR,0.00,VWS V14.01,2013-05-20 19:30:00,
2013-05-20 16:00:00,82.0,64.8,29.97,SE,135,3.0,8.0,56,0.00,,CLR,0.00,VWS V14.01,2013-05-20 20:00:00,
2013-05-20 16:30:00,81.9,63.6,29.96,SSW,202,2.0,6.0,54,0.00,,CLR,0.00,VWS V14.01,2013-05-20 20:30:00,
2013-05-20 17:00:00,82.1,64.3,29.95,SE,135,2.0,6.0,55,0.00,,CLR,0.00,VWS V14.01,2013-05-20 21:00:00,
2013-05-20 17:30:00,82.2,63.4,29.94,SSW,202,2.0,5.0,53,0.00,,CLR,0.00,VWS V14.01,2013-05-20 21:30:00,
2013-05-20 18:00:00,82.4,64.1,29.93,SE,135,2.0,6.0,54,0.00,,CLR,0.00,VWS V14.01,2013-05-20 22:00:00,
2013-05-20 18:30:00,82.2,64.4,29.90,SSW,202,3.0,7.0,55,0.00,,CLR,0.00,VWS V14.01,2013-05-20 22:30:00,
2013-05-20 19:00:00,81.8,63.5,29.90,South,180,3.0,7.0,54,0.00,,CLR,0.00,VWS V14.01,2013-05-20 23:00:00,
2013-05-20 19:30:00,81.0,64.3,29.91,South,180,2.0,8.0,57,0.00,,CLR,0.00,VWS V14.01,2013-05-20 23:30:00,
2013-05-20 20:00:00,79.2,67.3,29.92,SE,135,1.0,2.0,67,0.00,,CLR,0.00,VWS V14.01,2013-05-21 00:00:00,
2013-05-20 20:30:00,74.8,65.6,29.91,SE,135,0.0,1.0,73,0.00,,CLR,0.00,VWS V14.01,2013-05-21 00:30:00,
2013-05-20 21:00:00,72.0,64.4,29.92,North,0,0.0,3.0,77,0.00,,CLR,0.00,VWS V14.01,2013-05-21 01:00:00,
2013-05-20 21:30:00,71.0,63.4,29.93,North,0,0.0,0.0,77,0.00,,CLR,0.00,VWS V14.01,2013-05-21 01:30:00,
2013-05-20 22:00:00,71.0,63.8,29.93,North,0,0.0,0.0,78,0.00,,CLR,0.00,VWS V14.01,2013-05-21 02:00:00,
2013-05-20 22:30:00,71.0,64.2,29.94,North,0,0.0,0.0,79,0.00,,CLR,0.00,VWS V14.01,2013-05-21 02:30:00,
2013-05-20 23:00:00,73.1,65.1,29.94,North,0,0.0,0.0,76,0.00,,CLR,0.00,VWS V14.01,2013-05-21 03:00:00,
2013-05-20 23:30:00,74.0,65.6,29.94,North,0,0.0,0.0,75,0.00,,CLR,0.00,VWS V14.01,2013-05-21 03:30:00,